Weather History for Harrisburg, IL

Change the Weather History Date:

Saturday, February 11, 2012

  Actual Average (KMWA) Record (KMWA)
Temperature  
Mean Temperature 26 °F -  
Max Temperature 30 °F 43 °F 140 °F (2013)
Min Temperature 21 °F 22 °F -8 °F (1982)
Degree Days  
Heating Degree Days 40    
Moisture  
Dew Point 12 °F    
Average Humidity 57    
Maximum Humidity 80    
Minimum Humidity 40    
Precipitation  
Precipitation 0.00 in - - ()
Sea Level Pressure  
Sea Level Pressure 30.39 in    
Wind  
Wind Speed 16 mph (NW)    
Max Wind Speed 24 mph    
Max Gust Speed 30 mph    
Visibility 10 miles    
Events Snow    
Averages and records for this station are not official NWS values.
T = Trace of Precipitation, MM = Missing Value Source: NWS Daily Summary

Daily Weather History Graph

Daily Weather History Graph

Search for Another Location

Airport:

Trip Planner

Search our weather history database for the weather conditions in past years. The results will help you decide how hot, cold, wet, or windy it might be!

Date:

Astronomy

Feb. 11, 2012 Rise Set
Actual Time 6:49 AM CST 5:28 PM CST
Civil Twilight 6:21 AM CST 5:55 PM CST
Nautical Twilight 5:50 AM CST 6:26 PM CST
Astronomical Twilight 5:20 AM CST 6:57 PM CST
Moon 10:09 PM CST (2/11) 8:37 AM CST (2/11)
Length of Visible Light 11h 33m
Length of Day
10h 39m
Waning Gibbous, 82% of the Moon is Illuminated
Feb 11
Waning Gibbous
Feb 14
Last Quarter
Feb 21
New
Feb 29
First Quarter
Mar 8
Full

Hourly Weather History & Observations

Time (CST) Temp. Windchill Dew Point Humidity Pressure Visibility Wind Dir Wind Speed Gust Speed Precip Events Conditions
12:15 AM 28.4 °F 16.2 °F 21.2 °F 74% 30.19 in 7.0 mi NW 17.3 mph 29.9 mph N/A Snow Light Snow
12:35 AM 28.4 °F 16.6 °F 23.0 °F 80% 30.20 in 5.0 mi NNW 16.1 mph 25.3 mph N/A Snow Light Snow
12:55 AM 26.6 °F 15.7 °F 21.2 °F 80% 30.20 in 10.0 mi NNW 12.7 mph 18.4 mph N/A   Unknown
1:15 AM 26.6 °F 14.3 °F 17.6 °F 69% 30.21 in 10.0 mi NNW 16.1 mph 25.3 mph N/A   Unknown
1:35 AM 26.6 °F 13.8 °F 17.6 °F 69% 30.22 in 10.0 mi NNW 17.3 mph 27.6 mph N/A   Mostly Cloudy
1:55 AM 26.6 °F 14.7 °F 17.6 °F 69% 30.23 in 10.0 mi NNW 15.0 mph 24.2 mph N/A   Unknown
2:15 AM 26.6 °F 13.4 °F 17.6 °F 69% 30.23 in 10.0 mi NNW 18.4 mph 24.2 mph N/A   Unknown
2:35 AM 26.6 °F 14.3 °F 17.6 °F 69% 30.24 in 10.0 mi NNW 16.1 mph 24.2 mph N/A   Unknown
2:55 AM 26.6 °F 13.8 °F 14.0 °F 59% 30.25 in 10.0 mi NNW 17.3 mph 27.6 mph N/A   Overcast
3:15 AM 24.8 °F 11.1 °F 14.0 °F 64% 30.26 in 10.0 mi NNW 18.4 mph 24.2 mph N/A   Unknown
3:35 AM 24.8 °F 11.9 °F 15.8 °F 69% 30.28 in 10.0 mi NNW 16.1 mph 24.2 mph N/A   Unknown
3:55 AM 24.8 °F 11.5 °F 15.8 °F 69% 30.29 in 10.0 mi NNW 17.3 mph 23.0 mph N/A   Unknown
4:15 AM 24.8 °F 11.5 °F 14.0 °F 64% 30.31 in 10.0 mi NNW 17.3 mph 23.0 mph N/A   Unknown
4:35 AM 23.0 °F 12.4 °F 15.8 °F 74% 30.32 in 10.0 mi NNW 10.4 mph 20.7 mph N/A   Unknown
4:55 AM 23.0 °F 10.6 °F 14.0 °F 68% 30.33 in 10.0 mi NNW 13.8 mph 26.5 mph N/A   Unknown
5:15 AM 23.0 °F 9.6 °F 14.0 °F 68% 30.34 in 10.0 mi NNW 16.1 mph 20.7 mph N/A   Unknown
5:35 AM 23.0 °F 12.4 °F 14.0 °F 68% 30.36 in 10.0 mi NNW 10.4 mph - N/A   Unknown
5:55 AM 23.0 °F 9.2 °F 10.4 °F 59% 30.37 in 10.0 mi NNW 17.3 mph 24.2 mph N/A   Clear
6:15 AM 21.2 °F 8.3 °F 10.4 °F 63% 30.38 in 10.0 mi NNW 13.8 mph - N/A   Clear
6:35 AM 21.2 °F 8.3 °F 8.6 °F 58% 30.39 in 10.0 mi NNW 13.8 mph 20.7 mph N/A   Unknown
6:55 AM 21.2 °F 8.3 °F 8.6 °F 58% 30.40 in 10.0 mi NW 13.8 mph 26.5 mph N/A   Unknown
7:15 AM 21.2 °F 8.9 °F 8.6 °F 58% 30.41 in 10.0 mi NNW 12.7 mph 25.3 mph N/A   Unknown
7:35 AM 21.2 °F 7.8 °F 8.6 °F 58% 30.43 in 10.0 mi NNW 15.0 mph - N/A   Unknown
7:55 AM 21.2 °F 7.3 °F 8.6 °F 58% 30.44 in 10.0 mi NNW 16.1 mph 24.2 mph N/A   Unknown
8:15 AM 21.2 °F 8.3 °F 8.6 °F 58% 30.45 in 10.0 mi NNW 13.8 mph 26.5 mph N/A   Unknown
8:35 AM 23.0 °F 10.1 °F 10.4 °F 59% 30.45 in 10.0 mi NW 15.0 mph 19.6 mph N/A   Unknown
8:55 AM 23.0 °F 9.2 °F 8.6 °F 54% 30.45 in 10.0 mi NW 17.3 mph - N/A   Unknown
9:15 AM 23.0 °F 9.2 °F 8.6 °F 54% 30.46 in 10.0 mi NNW 17.3 mph 23.0 mph N/A   Clear
9:35 AM 23.0 °F 8.3 °F 8.6 °F 54% 30.46 in 10.0 mi NNW 19.6 mph 24.2 mph N/A   Clear
9:55 AM 23.0 °F 10.6 °F 8.6 °F 54% 30.46 in 10.0 mi NNW 13.8 mph 20.7 mph N/A   Clear
10:15 AM 24.8 °F 11.5 °F 10.4 °F 54% 30.47 in 10.0 mi NNW 17.3 mph 21.9 mph N/A   Clear
10:35 AM 24.8 °F 11.5 °F 8.6 °F 50% 30.48 in 10.0 mi North 17.3 mph 24.2 mph N/A   Clear
10:55 AM 26.6 °F 16.2 °F 10.4 °F 51% 30.48 in 10.0 mi NW 11.5 mph 23.0 mph N/A   Clear
11:15 AM 26.6 °F 14.3 °F 10.4 °F 51% 30.48 in 10.0 mi NNW 16.1 mph 25.3 mph N/A   Unknown
11:35 AM 26.6 °F 12.7 °F 10.4 °F 51% 30.48 in 10.0 mi WNW 20.7 mph 25.3 mph N/A   Unknown
11:55 AM 26.6 °F 14.3 °F 10.4 °F 51% 30.48 in 10.0 mi NNW 16.1 mph 23.0 mph N/A   Unknown
12:15 PM 28.4 °F 14.7 °F 12.2 °F 51% 30.47 in 10.0 mi NW 21.9 mph 28.8 mph N/A   Unknown
12:35 PM 28.4 °F 16.6 °F 12.2 °F 51% 30.47 in 10.0 mi NW 16.1 mph 23.0 mph N/A   Unknown
12:55 PM 28.4 °F 16.2 °F 12.2 °F 51% 30.46 in 10.0 mi NW 17.3 mph 25.3 mph N/A   Unknown
1:15 PM 28.4 °F 14.1 °F 14.0 °F 55% 30.46 in 10.0 mi WNW 24.2 mph 27.6 mph N/A   Unknown
1:35 PM 28.4 °F 14.4 °F 12.2 °F 51% 30.46 in 10.0 mi WNW 23.0 mph 27.6 mph N/A   Unknown
1:55 PM 28.4 °F 15.8 °F 14.0 °F 55% 30.46 in 10.0 mi WNW 18.4 mph 27.6 mph N/A   Unknown
2:15 PM 28.4 °F 15.1 °F 12.2 °F 51% 30.46 in 10.0 mi WNW 20.7 mph 28.8 mph N/A   Unknown
2:35 PM 28.4 °F 16.2 °F 10.4 °F 47% 30.46 in 10.0 mi NW 17.3 mph 26.5 mph N/A   Unknown
2:55 PM 28.4 °F 17.5 °F 10.4 °F 47% 30.46 in 10.0 mi NW 13.8 mph 23.0 mph N/A   Unknown
3:15 PM 28.4 °F 16.2 °F 8.6 °F 43% 30.46 in 10.0 mi WNW 17.3 mph 25.3 mph N/A   Clear
3:35 PM 28.4 °F 16.2 °F 8.6 °F 43% 30.47 in 10.0 mi NW 17.3 mph 23.0 mph N/A   Clear
3:55 PM 28.4 °F 15.8 °F 8.6 °F 43% 30.47 in 10.0 mi NW 18.4 mph 24.2 mph N/A   Clear
4:15 PM 30.2 °F 19.3 °F 8.6 °F 40% 30.47 in 10.0 mi NNW 15.0 mph 26.5 mph N/A   Clear
4:35 PM 28.4 °F 15.4 °F 8.6 °F 43% 30.47 in 10.0 mi NW 19.6 mph 26.5 mph N/A   Clear
4:55 PM 28.4 °F 18.0 °F 8.6 °F 43% 30.48 in 10.0 mi NNW 12.7 mph - N/A   Clear
5:15 PM 28.4 °F 18.0 °F 8.6 °F 43% 30.48 in 10.0 mi NW 12.7 mph 18.4 mph N/A   Unknown
5:35 PM 26.6 °F 13.8 °F 8.6 °F 47% 30.48 in 10.0 mi NW 17.3 mph 23.0 mph N/A   Unknown
5:55 PM 26.6 °F 15.7 °F 8.6 °F 47% 30.49 in 10.0 mi NW 12.7 mph 17.3 mph N/A   Unknown
6:15 PM 26.6 °F 17.5 °F 10.4 °F 51% 30.49 in 10.0 mi NW 9.2 mph - N/A   Clear
6:35 PM 26.6 °F 17.5 °F 10.4 °F 51% 30.50 in 10.0 mi NW 9.2 mph 18.4 mph N/A   Clear
6:55 PM 26.6 °F 17.5 °F 10.4 °F 51% 30.50 in 10.0 mi NW 9.2 mph 18.4 mph N/A   Clear
7:15 PM 26.6 °F 17.5 °F 10.4 °F 51% 30.50 in 10.0 mi WNW 9.2 mph - N/A   Clear
7:35 PM 26.6 °F 17.5 °F 10.4 °F 51% 30.50 in 10.0 mi NW 9.2 mph - N/A   Clear
7:55 PM 26.6 °F 18.2 °F 10.4 °F 51% 30.49 in 10.0 mi WNW 8.1 mph - N/A   Clear
8:15 PM 26.6 °F 18.2 °F 10.4 °F 51% 30.50 in 10.0 mi NW 8.1 mph - N/A   Clear
8:35 PM 26.6 °F 19.1 °F 10.4 °F 51% 30.50 in 10.0 mi NW 6.9 mph - N/A   Clear
8:55 PM 24.8 °F 16.9 °F 12.2 °F 59% 30.51 in 10.0 mi NW 6.9 mph - N/A   Clear
9:15 PM 24.8 °F 15.3 °F 10.4 °F 54% 30.51 in 10.0 mi NNW 9.2 mph - N/A   Clear
9:35 PM 26.6 °F 16.8 °F 10.4 °F 51% 30.51 in 10.0 mi NW 10.4 mph 17.3 mph N/A   Clear
9:55 PM 26.6 °F 16.8 °F 10.4 °F 51% 30.51 in 10.0 mi NW 10.4 mph - N/A   Clear
10:15 PM 26.6 °F 15.7 °F 8.6 °F 47% 30.51 in 10.0 mi NW 12.7 mph 19.6 mph N/A   Clear
10:35 PM 26.6 °F 16.2 °F 8.6 °F 47% 30.50 in 10.0 mi NW 11.5 mph 20.7 mph N/A   Clear
10:55 PM 24.8 °F 14.6 °F 8.6 °F 50% 30.51 in 10.0 mi NW 10.4 mph - N/A   Clear
11:15 PM 24.8 °F 14.0 °F 8.6 °F 50% 30.51 in 10.0 mi NW 11.5 mph 17.3 mph N/A   Clear
11:35 PM 24.8 °F 15.3 °F 8.6 °F 50% 30.51 in 10.0 mi NW 9.2 mph 19.6 mph N/A   Clear
11:55 PM 23.0 °F 12.4 °F 8.6 °F 54% 30.51 in 10.0 mi NW 10.4 mph - N/A   Clear